Terminal Aerodrome Forecast
Issued by NWS Dodge City, KS

Home | Current Version | Previous Version | Text Only | Print | Product List | Glossary On
Versions: 1 2 3 4 5 6 7 8 9 10 11 12 13 14 15 16 17 18 19 20 21 22 23 24 25 26
000
FTUS43 KDDC 180527
TAFDDC
TAF
KDDC 180527Z 1806/1906 23006KT P6SM SCT200
     FM181000 13006KT 2SM BR SCT002
     FM181400 17011KT P6SM SCT200=

USA.gov is the U.S. government's official web portal to all federal, state and local government web resources and services.